Flagstaff, AZ

10:19 PM MST on March 25, 2017 (GMT -0700)
Flagstaff Pulliam

Weather History for KFLG - December, 2012

Change the Weather History Date:

Thursday, December 27, 2012

  Actual Average Record
Temperature  
Mean Temperature 21 °F 29 °F  
Max Temperature 31 °F 42 °F 67 °F (1980)
Min Temperature 10 °F 16 °F -14 °F (1926)
Degree Days  
Heating Degree Days 44 36  
Month to date heating degree days 942 953  
Since 1 July heating degree days 2385 2685  
Cooling Degree Days 0 0  
Month to date cooling degree days 0 0  
Year to date cooling degree days 164 117  
Moisture  
Dew Point 18 °F    
Average Humidity 89    
Maximum Humidity 100    
Minimum Humidity 77    
Precipitation  
Precipitation 0.03 in 0.07 in 1.22 in (1984)
Month to date precipitation 1.95 1.60  
Year to date precipitation 14.76 21.59  
Snow  
Snow 0.60 in 0.60 in 4.70 in (1946)
Month to date snowfall 25.9 14.5  
Since 1 July snowfall 27.0 26.7  
Snow Depth 9.00 in    
Sea Level Pressure  
Sea Level Pressure 29.83 in    
Wind  
Wind Speed 6 mph (WSW)    
Max Wind Speed 15 mph    
Max Gust Speed 23 mph    
Visibility 7 miles    
Events Fog , Snow    
T = Trace of Precipitation, MM = Missing Value Source: NWS Daily Summary

Daily Weather History Graph

Daily Weather History Graph

Search for Another Location

Airport or City:

Trip Planner

Search our weather history database for the weather conditions in past years. The results will help you decide how hot, cold, wet, or windy it might be!

Date:

Astronomy

Dec. 27, 2012 Rise Set
Actual Time 7:33 AM MST 5:22 PM MST
Civil Twilight 7:05 AM MST 5:50 PM MST
Nautical Twilight 6:33 AM MST 6:22 PM MST
Astronomical Twilight 6:03 AM MST 6:53 PM MST
Moon 5:07 PM MST (12/27) 6:48 AM MST (12/27)
Length of Visible Light 10h 44m
Length of Day
9h 48m
Full, 100% of the Moon is Illuminated
Dec 27
Full
Dec 28
Full
Jan 4
Last Quarter
Jan 11
New
Jan 18
First Quarter

Hourly Weather History & Observations

Time (MST) Temp. Windchill Dew Point Humidity Pressure Visibility Wind Dir Wind Speed Gust Speed Precip Events Conditions
12:30 AM 23.0 °F 13.9 °F 21.2 °F 93% 29.84 in 10.0 mi SSW 8.1 mph - 0.00 in   Overcast
12:57 AM 23.0 °F 15.8 °F 21.0 °F 92% 29.84 in 10.0 mi SW 5.8 mph - 0.00 in   Overcast
1:07 AM 23.0 °F 15.8 °F 19.4 °F 86% 29.83 in 9.0 mi SW 5.8 mph - 0.00 in Snow Light Snow
1:15 AM 21.2 °F 13.6 °F 19.4 °F 93% 29.83 in 9.0 mi SW 5.8 mph - 0.00 in   Overcast
1:24 AM 21.2 °F 12.6 °F 19.4 °F 93% 29.83 in 9.0 mi SSW 6.9 mph - 0.00 in Snow Light Snow
1:49 AM 21.2 °F - 19.4 °F 93% 29.83 in 8.0 mi Calm Calm - 0.00 in Snow Light Snow
1:57 AM 21.0 °F 16.2 °F 19.9 °F 96% 29.85 in 9.0 mi WSW 3.5 mph - 0.00 in   Overcast
2:21 AM 21.2 °F 14.9 °F 19.4 °F 93% 29.83 in 10.0 mi SW 4.6 mph - N/A   Mostly Cloudy
2:57 AM 19.9 °F 13.4 °F 17.1 °F 89% 29.85 in 9.0 mi SW 4.6 mph - 0.00 in   Scattered Clouds
3:50 AM 17.6 °F 12.3 °F 15.8 °F 93% 29.81 in 10.0 mi WNW 3.5 mph - N/A   Mostly Cloudy
3:57 AM 18.0 °F - 16.0 °F 92% 29.84 in 10.0 mi Calm Calm - N/A   Mostly Cloudy
4:08 AM 15.8 °F - 14.0 °F 93% 29.80 in 10.0 mi Calm Calm - N/A   Scattered Clouds
4:20 AM 15.8 °F - 12.2 °F 86% 29.80 in 10.0 mi Calm Calm - N/A   Mostly Cloudy
4:53 AM 19.4 °F - 15.8 °F 86% 29.78 in 10.0 mi Calm Calm - N/A   Partly Cloudy
4:57 AM 17.1 °F 11.7 °F 14.0 °F 88% 29.82 in 10.0 mi West 3.5 mph - N/A   Partly Cloudy
5:57 AM 17.1 °F 11.7 °F 14.0 °F 88% 29.83 in 10.0 mi WSW 3.5 mph - N/A   Clear
6:57 AM 15.1 °F 7.7 °F 10.9 °F 84% 29.86 in 10.0 mi West 4.6 mph - N/A   Clear
7:57 AM 15.1 °F 7.7 °F 12.0 °F 88% 29.87 in 10.0 mi SW 4.6 mph - N/A   Mostly Cloudy
8:16 AM 15.8 °F 10.2 °F 14.0 °F 93% 29.80 in 10.0 mi WSW 3.5 mph - N/A   Scattered Clouds
8:46 AM 19.4 °F 12.8 °F 17.6 °F 93% 29.81 in 10.0 mi WSW 4.6 mph - N/A   Overcast
8:57 AM 19.9 °F 11.1 °F 19.0 °F 96% 29.87 in 10.0 mi West 6.9 mph - N/A   Overcast
9:57 AM 21.9 °F 10.4 °F 19.9 °F 92% 29.88 in 10.0 mi SW 11.5 mph - N/A   Overcast
10:33 AM 24.8 °F 14.6 °F 21.2 °F 86% 29.83 in 6.0 mi SW 10.4 mph - N/A   Overcast
10:57 AM 26.1 °F 17.6 °F 21.0 °F 81% 29.87 in 6.0 mi SW 8.1 mph - 0.00 in Snow Light Snow
11:19 AM 26.6 °F 17.5 °F 21.2 °F 80% 29.82 in 7.0 mi WSW 9.2 mph - 0.00 in Snow Light Snow
11:46 AM 26.6 °F 16.2 °F 19.4 °F 74% 29.81 in 2.0 mi WSW 11.5 mph - 0.00 in Snow Light Snow
11:53 AM 24.8 °F 14.6 °F 19.4 °F 80% 29.81 in 1.0 mi SW 10.4 mph - 0.00 in Snow Light Snow
11:57 AM 25.0 °F 14.8 °F 21.0 °F 85% 29.84 in 1.2 mi SW 10.4 mph - 0.00 in Snow Light Snow
12:04 PM 26.6 °F 16.8 °F 21.2 °F 80% 29.80 in 3.0 mi SW 10.4 mph - 0.00 in Snow Light Snow
12:36 PM 26.6 °F 18.2 °F 19.4 °F 74% 29.79 in 1.5 mi NW 8.1 mph 16.1 mph 0.00 in Snow Light Snow
12:52 PM 24.8 °F 16.1 °F 21.2 °F 86% 29.78 in 0.5 mi WSW 8.1 mph - 0.00 in Fog , Snow Snow
12:55 PM 24.8 °F 15.3 °F 21.2 °F 86% 29.78 in 0.2 mi WSW 9.2 mph - 0.01 in Fog , Snow Snow
12:57 PM 24.1 °F 14.4 °F 21.0 °F 88% 29.81 in 0.2 mi WSW 9.2 mph - 0.01 in Fog , Snow Light Snow
1:06 PM 24.8 °F 19.1 °F 21.2 °F 86% 29.78 in 0.5 mi West 4.6 mph - 0.01 in Fog , Snow Snow
1:13 PM 24.8 °F - 21.2 °F 86% 29.78 in 2.5 mi Calm Calm - 0.01 in Snow Light Snow
1:17 PM 24.8 °F 20.5 °F 21.2 °F 86% 29.77 in 8.0 mi WSW 3.5 mph - 0.01 in   Mostly Cloudy
1:38 PM 26.6 °F 19.1 °F 17.6 °F 69% 29.77 in 7.0 mi Variable 6.9 mph 19.6 mph 0.01 in Snow Light Snow
1:57 PM 30.0 °F 23.2 °F 17.1 °F 59% 29.78 in 10.0 mi Variable 6.9 mph - 0.01 in   Mostly Cloudy
2:57 PM 27.0 °F 20.5 °F 19.0 °F 72% 29.81 in 5.0 mi Variable 5.8 mph - 0.00 in Snow Light Snow
3:04 PM 26.6 °F 19.1 °F 19.4 °F 74% 29.77 in 1.8 mi Variable 6.9 mph - 0.00 in Snow Light Snow
3:06 PM 26.6 °F 19.1 °F 19.4 °F 74% 29.78 in 1.5 mi Variable 6.9 mph - 0.00 in Snow Light Snow
3:12 PM 26.6 °F 20.0 °F 19.4 °F 74% 29.78 in 2.0 mi Variable 5.8 mph - 0.00 in Snow Light Snow
3:20 PM 26.6 °F 22.6 °F 17.6 °F 69% 29.78 in 9.0 mi Variable 3.5 mph - 0.00 in   Overcast
3:27 PM 26.6 °F 16.8 °F 19.4 °F 74% 29.78 in 1.5 mi NNW 10.4 mph - 0.00 in Snow Light Snow
3:36 PM 24.8 °F 14.6 °F 19.4 °F 80% 29.80 in 0.2 mi WNW 10.4 mph 21.9 mph 0.00 in Snow Heavy Snow
3:44 PM 24.8 °F 15.3 °F 19.4 °F 80% 29.80 in 0.2 mi WNW 9.2 mph 18.4 mph 0.01 in Snow Heavy Snow
3:47 PM 24.8 °F 16.9 °F 19.4 °F 80% 29.80 in 0.5 mi NW 6.9 mph - 0.01 in Snow Snow
3:57 PM 25.0 °F 19.3 °F 19.9 °F 81% 29.85 in 2.5 mi Variable 4.6 mph - 0.01 in Snow Light Snow
4:04 PM 24.8 °F 17.9 °F 19.4 °F 80% 29.80 in 5.0 mi Variable 5.8 mph - 0.00 in Snow Light Snow
4:12 PM 24.8 °F 19.1 °F 19.4 °F 80% 29.80 in 10.0 mi Variable 4.6 mph - 0.00 in   Scattered Clouds
4:57 PM 24.1 °F 16.0 °F 17.1 °F 75% 29.88 in 10.0 mi Variable 6.9 mph - 0.00 in   Partly Cloudy
5:57 PM 21.9 °F 15.7 °F 16.0 °F 78% 29.91 in 10.0 mi West 4.6 mph - N/A   Partly Cloudy
6:57 PM 21.9 °F 15.7 °F 16.0 °F 78% 29.94 in 10.0 mi WNW 4.6 mph - N/A   Clear
7:26 PM 21.2 °F 14.9 °F 17.6 °F 86% 29.86 in 3.0 mi Variable 4.6 mph - 0.00 in Snow Light Snow
7:50 PM 21.2 °F 13.6 °F 17.6 °F 86% 29.87 in 10.0 mi West 5.8 mph - 0.00 in   Scattered Clouds
7:57 PM 21.0 °F 11.4 °F 17.1 °F 85% 29.97 in 10.0 mi West 8.1 mph - 0.00 in   Scattered Clouds
8:05 PM 21.2 °F 11.7 °F 17.6 °F 86% 29.87 in 10.0 mi West 8.1 mph - N/A   Mostly Cloudy
8:57 PM 21.0 °F 14.6 °F 15.1 °F 78% 29.95 in 10.0 mi West 4.6 mph - N/A   Mostly Cloudy
9:04 PM 21.2 °F 13.6 °F 15.8 °F 80% 29.88 in 10.0 mi Variable 5.8 mph - N/A   Scattered Clouds
9:57 PM 19.9 °F 13.4 °F 14.0 °F 78% 29.96 in 10.0 mi Variable 4.6 mph - N/A   Clear
10:57 PM 19.9 °F 14.9 °F 14.0 °F 78% 29.96 in 10.0 mi Variable 3.5 mph - N/A   Clear
11:57 PM 19.0 °F 12.3 °F 12.9 °F 77% 29.99 in 10.0 mi Variable 4.6 mph - N/A   Clear